Location: New Plymouth
(39.0670°S, 174.0830°E)
Time: 12:10:46
(UTC+13:00)

Resurs 01 Rocket - Pass Details

Date: 24 January 2019
Orbit: 635 x 643 km, 98.1° (Epoch: 16 February)

Event Time Altitude Azimuth Distance (km) Brightness Sun altitude
Rises 21:36:37 0° 154° (SSE) 2,976 5.2 -9.3°
Reaches altitude 10° 21:39:13 10° 139° (SE) 2,056 4.2 -9.7°
Maximum altitude 21:42:51 24° 85° (E) 1,336 2.8 -10.3°
Enters shadow 21:45:43 13° 37° (NE) 1,811 3.3 -10.7°
